Location: St Paul
(33.4390°N, 83.7350°W)
Time: 16:37:35
(UTC-05:00)

NOSS 3-4 (A) - Pass Details

Date: 06 October 2017
Orbit: 951 x 1261 km, 63.4° (Epoch: 28 November)

Event Time Altitude Azimuth Distance (km) Brightness Sun altitude
Rises 21:40:01 0° 329° (NNW) 3,910 7.3 -31.4°
Reaches altitude 10° 21:42:37 10° 329° (NNW) 2,993 6.5 -31.9°
Enters shadow 21:49:34 84° 299° (WNW) 1,188 3.8 -33.3°
